Coldwater, MI

3:03 PM EST on November 18, 2017 (GMT -0500)
Branch County Memorial

Weather History for KOEB - November, 2011

Change the Weather History Date:

Saturday, November 5, 2011

  Actual Average (KJYM) Record (KJYM)
Temperature  
Mean Temperature 42 °F -  
Max Temperature 53 °F 49 °F 72 °F (1978)
Min Temperature 30 °F 32 °F 11 °F (1951)
Degree Days  
Heating Degree Days 24    
Moisture  
Dew Point 29 °F    
Average Humidity 66    
Maximum Humidity 100    
Minimum Humidity 35    
Precipitation  
Precipitation 0.00 in - - ()
Sea Level Pressure  
Sea Level Pressure 30.27 in    
Wind  
Wind Speed 5 mph (SE)    
Max Wind Speed 13 mph    
Max Gust Speed 18 mph    
Visibility 10 miles    
Events      
Averages and records for this station are not official NWS values.
T = Trace of Precipitation, MM = Missing Value Source: NWS Daily Summary

Daily Weather History Graph

Daily Weather History Graph

Search for Another Location

Airport or City:

Trip Planner

Search our weather history database for the weather conditions in past years. The results will help you decide how hot, cold, wet, or windy it might be!

Date:

Astronomy

Nov. 05, 2011 Rise Set
Actual Time 8:17 AM EDT 6:29 PM EDT
Civil Twilight 7:48 AM EDT 6:58 PM EDT
Nautical Twilight 7:14 AM EDT 7:32 PM EDT
Astronomical Twilight 6:42 AM EDT 8:04 PM EDT
Moon 3:51 PM EDT (11/5) 3:22 AM EDT (11/5)
Length of Visible Light 11h 10m
Length of Day
10h 12m
Waxing Gibbous, 78% of the Moon is Illuminated
Nov 5
Waxing Gibbous
Nov 10
Full
Nov 18
Last Quarter
Nov 25
New
Dec 2
First Quarter

Hourly Weather History & Observations

Time (EDT) Temp. Windchill Dew Point Humidity Pressure Visibility Wind Dir Wind Speed Gust Speed Precip Events Conditions
12:15 AM 30.2 °F 25.4 °F 28.4 °F 93% 30.31 in 10.0 mi ESE 4.6 mph - N/A   Clear
12:54 AM 32.0 °F - 28.4 °F 87% 30.32 in 10.0 mi Calm Calm - N/A   Clear
1:15 AM 32.0 °F - 28.4 °F 87% 30.32 in 10.0 mi Calm Calm - N/A   Clear
1:34 AM 32.0 °F 28.7 °F 28.4 °F 87% 30.33 in 10.0 mi East 3.5 mph - N/A   Clear
1:55 AM 32.0 °F 28.7 °F 28.4 °F 87% 30.32 in 10.0 mi ESE 3.5 mph - N/A   Clear
2:14 AM 32.0 °F 24.8 °F 28.4 °F 87% 30.31 in 10.0 mi ESE 8.1 mph - N/A   Clear
2:34 AM 35.6 °F 29.2 °F 30.2 °F 81% 30.31 in 10.0 mi ESE 8.1 mph - N/A   Clear
2:55 AM 35.6 °F 29.2 °F 32.0 °F 87% 30.31 in 10.0 mi ESE 8.1 mph - N/A   Clear
3:35 AM 35.6 °F 32.8 °F 32.0 °F 87% 30.31 in 10.0 mi ESE 3.5 mph - N/A   Clear
3:55 AM 35.6 °F - 32.0 °F 87% 30.31 in 10.0 mi Calm Calm - N/A   Clear
4:14 AM 33.8 °F 27.7 °F 32.0 °F 93% 30.30 in 10.0 mi East 6.9 mph - N/A   Clear
4:35 AM 35.6 °F 32.8 °F 32.0 °F 87% 30.29 in 10.0 mi ESE 3.5 mph - N/A   Clear
4:55 AM 35.6 °F 32.8 °F 32.0 °F 87% 30.29 in 10.0 mi East 3.5 mph - N/A   Clear
5:14 AM 35.6 °F 32.8 °F 32.0 °F 87% 30.29 in 10.0 mi East 3.5 mph - N/A   Clear
5:35 AM 33.8 °F - 32.0 °F 93% 30.29 in 10.0 mi Calm Calm - N/A   Clear
5:55 AM 33.8 °F - 32.0 °F 93% 30.30 in 10.0 mi Calm Calm - N/A   Clear
6:14 AM 33.8 °F 29.6 °F 32.0 °F 93% 30.30 in 10.0 mi East 4.6 mph - N/A   Clear
6:35 AM 32.0 °F 28.7 °F 32.0 °F 100% 30.29 in 10.0 mi ESE 3.5 mph - N/A   Clear
6:54 AM 33.8 °F 29.6 °F 32.0 °F 93% 30.29 in 10.0 mi SE 4.6 mph - N/A   Clear
7:35 AM 33.8 °F 30.8 °F 32.0 °F 93% 30.31 in 10.0 mi SE 3.5 mph - N/A   Clear
7:54 AM 32.0 °F 28.7 °F 32.0 °F 100% 30.31 in 10.0 mi SE 3.5 mph - N/A   Clear
8:54 AM 32.0 °F - 32.0 °F 100% 30.31 in 10.0 mi Calm Calm - N/A   Clear
9:14 AM 33.8 °F 29.6 °F 32.0 °F 93% 30.31 in 10.0 mi SE 4.6 mph - N/A   Clear
9:35 AM 35.6 °F 30.7 °F 32.0 °F 87% 30.31 in 10.0 mi SE 5.8 mph - N/A   Clear
9:54 AM 37.4 °F 32.1 °F 32.0 °F 81% 30.31 in 10.0 mi SE 6.9 mph - N/A   Clear
10:14 AM 41.0 °F 35.8 °F 30.2 °F 65% 30.31 in 10.0 mi SE 8.1 mph - N/A   Clear
10:35 AM 42.8 °F 37.0 °F 30.2 °F 61% 30.31 in 10.0 mi SE 10.4 mph - N/A   Clear
10:54 AM 42.8 °F 37.5 °F 28.4 °F 57% 30.31 in 10.0 mi SE 9.2 mph - N/A   Clear
11:14 AM 44.6 °F 40.2 °F 28.4 °F 53% 30.31 in 10.0 mi South 8.1 mph - N/A   Clear
11:35 AM 44.6 °F 39.2 °F 28.4 °F 53% 30.31 in 10.0 mi SSE 10.4 mph - N/A   Clear
11:54 AM 46.4 °F 42.4 °F 28.4 °F 50% 30.31 in 10.0 mi SSE 8.1 mph - N/A   Clear
12:15 PM 46.4 °F 41.5 °F 28.4 °F 50% 30.31 in 10.0 mi South 10.4 mph - N/A   Clear
12:34 PM 48.2 °F - 28.4 °F 46% 30.31 in 10.0 mi SSE 9.2 mph - N/A   Clear
12:54 PM 48.2 °F - 26.6 °F 43% 30.29 in 10.0 mi SSE 10.4 mph - N/A   Clear
1:15 PM 50.0 °F - 26.6 °F 40% 30.28 in 10.0 mi South 8.1 mph - N/A   Clear
1:54 PM 51.8 °F - 26.6 °F 38% 30.26 in 10.0 mi South 9.2 mph - N/A   Clear
2:15 PM 51.8 °F - 24.8 °F 35% 30.25 in 10.0 mi South 9.2 mph 18.4 mph N/A   Clear
2:34 PM 51.8 °F - 26.6 °F 38% 30.25 in 10.0 mi SSE 8.1 mph - N/A   Clear
2:54 PM 51.8 °F - 24.8 °F 35% 30.24 in 10.0 mi SSE 9.2 mph 16.1 mph N/A   Clear
3:14 PM 51.8 °F - 24.8 °F 35% 30.23 in 10.0 mi SE 12.7 mph - N/A   Clear
3:34 PM 53.6 °F - 26.6 °F 35% 30.22 in 10.0 mi SE 8.1 mph - N/A   Clear
3:55 PM 53.6 °F - 26.6 °F 35% 30.22 in 10.0 mi SSE 10.4 mph - N/A   Clear
4:14 PM 53.6 °F - 26.6 °F 35% 30.21 in 10.0 mi SSE 10.4 mph - N/A   Clear
4:34 PM 53.6 °F - 26.6 °F 35% 30.21 in 10.0 mi SSE 10.4 mph - N/A   Clear
4:55 PM 53.6 °F - 26.6 °F 35% 30.21 in 10.0 mi SE 9.2 mph - N/A   Clear
5:14 PM 51.8 °F - 26.6 °F 38% 30.21 in 10.0 mi South 8.1 mph - N/A   Clear
5:34 PM 51.8 °F - 28.4 °F 41% 30.20 in 10.0 mi SSE 9.2 mph - N/A   Clear
5:55 PM 50.0 °F - 28.4 °F 43% 30.19 in 10.0 mi SSE 5.8 mph - N/A   Clear
6:14 PM 48.2 °F - 28.4 °F 46% 30.19 in 10.0 mi SE 5.8 mph - N/A   Clear
6:34 PM 46.4 °F 43.5 °F 28.4 °F 50% 30.18 in 10.0 mi SE 5.8 mph - N/A   Clear
6:55 PM 46.4 °F 45.2 °F 28.4 °F 50% 30.18 in 10.0 mi SE 3.5 mph - N/A   Clear
7:14 PM 44.6 °F - 28.4 °F 53% 30.18 in 10.0 mi Calm Calm - N/A   Clear
7:55 PM 42.8 °F - 28.4 °F 57% 30.18 in 10.0 mi Calm Calm - N/A   Clear
8:14 PM 42.8 °F 41.1 °F 28.4 °F 57% 30.17 in 10.0 mi SE 3.5 mph - N/A   Clear
8:35 PM 42.8 °F 40.1 °F 28.4 °F 57% 30.17 in 10.0 mi SSE 4.6 mph - N/A   Clear
8:54 PM 42.8 °F 41.1 °F 28.4 °F 57% 30.17 in 10.0 mi SE 3.5 mph - N/A   Clear
9:14 PM 42.8 °F 41.1 °F 28.4 °F 57% 30.17 in 10.0 mi SE 3.5 mph - N/A   Clear
9:35 PM 41.0 °F 37.1 °F 28.4 °F 61% 30.17 in 10.0 mi SE 5.8 mph - N/A   Clear
9:54 PM 41.0 °F 37.1 °F 28.4 °F 61% 30.17 in 10.0 mi SE 5.8 mph - N/A   Clear
10:14 PM 42.8 °F 38.6 °F 28.4 °F 57% 30.17 in 10.0 mi SE 6.9 mph - N/A   Clear
10:35 PM 41.0 °F 37.1 °F 28.4 °F 61% 30.16 in 10.0 mi SE 5.8 mph - N/A   Clear
10:54 PM 41.0 °F 39.0 °F 28.4 °F 61% 30.17 in 10.0 mi SE 3.5 mph - N/A   Clear
11:14 PM 41.0 °F - 28.4 °F 61% 30.17 in 10.0 mi Calm Calm - N/A   Clear
11:35 PM 37.4 °F 34.9 °F 28.4 °F 70% 30.17 in 10.0 mi ESE 3.5 mph - N/A   Clear
11:54 PM 37.4 °F 33.8 °F 28.4 °F 70% 30.17 in 10.0 mi SE 4.6 mph - N/A   Clear